Flag for Germany Weather past 2 weeks in Amberg, Bavaria, Germany

Now
57 °F

Mostly cloudy.


Feels Like: 57 °F
Forecast: 43 / 65 °F
Wind: 3 mph from Northeast

Location: Hohenfels


UV Index: 3 (Moderate)

Visibility: N/A


Pressure: 29.85 "Hg

Humidity: 72%

Dew point: 48 °F

Location of AmbergLocation

Historic Weather in Amberg

°F

Amberg temperature yesterday

Maximum temperature yesterday: 46 °F (at 6:04 PM)
Minimum temperature yesterday: 30 °F (at 3:58 AM)
Average temperature yesterday: 38 °F

Past Weeks' High & Low Weather Summary

 TemperatureHumidityPressure
High68 °F (Apr 7, 2:58 PM)100% (Apr 4, 9:58 PM)30.44 "Hg (Apr 4, 9:58 PM)
Low25 °F (Apr 17, 5:58 AM)30% (Apr 17, 3:58 PM)29.78 "Hg (Apr 4, 11:58 PM)
Average47 °F73%30.09 "Hg
* Reported Apr 4 8:58 PM — Apr 19 8:58 PM, Amberg, Weather by CustomWeather, © 2014

Note: Actual official high and low records may vary slightly from our data, if they occured in-between our weather recording intervals... More about our weather records

Advertising

Historic Weather Conditions — Data for Previous 24 hours

 ConditionsComfort  
Time TempWeatherWind HumidityBarometerVisibility
8:58 PM
Apr 19
57 °FMostly cloudy.3 mph72%29.85 "HgN/A
7:58 PM59 °FPassing clouds.2 mph59%29.83 "HgN/A
6:58 PM63 °FSunny.8 mph52%29.82 "HgN/A
5:58 PM63 °FSunny.10 mph52%29.84 "HgN/A
4:58 PM63 °FSunny.16 mph52%29.84 "HgN/A
4:04 PM61 °FSunny.13 mph55%29.82 "HgN/A
3:58 PM61 °FSunny.14 mph55%29.84 "HgN/A
2:58 PM59 °FSunny.12 mph59%29.87 "HgN/A
1:58 PM57 °FSunny.12 mph63%29.89 "HgN/A
12:58 PM55 °FScattered clouds.10 mph59%29.92 "HgN/A
11:58 AM54 °FPassing clouds.13 mph58%29.93 "HgN/A
10:58 AM50 °FScattered clouds.10 mph67%29.95 "HgN/A
9:58 AM46 °FSunny.8 mph71%29.96 "HgN/A
8:58 AM41 °FPassing clouds.5 mph85%29.96 "HgN/A
7:58 AM39 °FPassing clouds.2 mph87%29.96 "HgN/A
6:58 AM36 °FClear.2 mph93%29.96 "HgN/A
5:58 AM32 °FClear.5 mph100%29.96 "HgN/A
4:58 AM34 °FClear.3 mph93%29.95 "HgN/A
3:58 AM34 °FPassing clouds.3 mph93%29.96 "HgN/A
2:58 AM32 °FPassing clouds.3 mph100%29.98 "HgN/A
1:58 AM32 °FPassing clouds.1 mph100%29.98 "HgN/A
12:58 AM32 °FPassing clouds.1 mph100%29.99 "HgN/A
11:58 PM
Apr 18
36 °FPassing clouds.2 mph93%29.97 "HgN/A
10:58 PM36 °FPassing clouds.5 mph87%29.96 "HgN/A
9:58 PM36 °FClear.2 mph93%29.97 "HgN/A
Weather by CustomWeather, © 2014

See weather overview